GIA4451 WAAA-WADD

Flight info

Callsign GIA4451
Flight time 0h 52m
Altitude 32000
Route LIPOT W41 PEDET
Aircraft A339/H-SADE1E2E3GHIJ3J5M1P2RWXY/LB2D1

Departure

Time 2026-04-22 09:57
Airport Sultan Hasanuddin International Airport (WAAA)

Arrival

Time 2026-04-22 10:49
Airport Denpasar I Gusti Ngurah Rai International Airport (WADD)
Time Latitude Longitude Altitude Speed Heading
2026-04-22 09:45 -5.07936 119.54642 60 ft 0 kts 300°
2026-04-22 09:47 -5.07940 119.54647 60 ft 2 kts 298°
2026-04-22 09:47 -5.07946 119.54661 60 ft 2 kts 285°
2026-04-22 09:47 -5.07949 119.54675 61 ft 2 kts 276°
2026-04-22 09:48 -5.07949 119.54691 60 ft 2 kts 265°
2026-04-22 09:48 -5.07947 119.54705 60 ft 2 kts 255°
2026-04-22 09:48 -5.07942 119.54720 60 ft 2 kts 245°
2026-04-22 09:48 -5.07935 119.54733 60 ft 2 kts 235°
2026-04-22 09:49 -5.07926 119.54744 60 ft 2 kts 225°
2026-04-22 09:49 -5.07915 119.54754 60 ft 2 kts 214°
2026-04-22 09:49 -5.07907 119.54759 60 ft 1 kts 208°
2026-04-22 09:49 -5.07906 119.54760 61 ft 0 kts 208°
2026-04-22 09:51 -5.07907 119.54759 60 ft 0 kts 208°
2026-04-22 09:51 -5.07919 119.54752 60 ft 3 kts 211°
2026-04-22 09:52 -5.07952 119.54733 61 ft 7 kts 210°
2026-04-22 09:52 -5.07980 119.54726 60 ft 5 kts 168°
2026-04-22 09:52 -5.08021 119.54775 60 ft 13 kts 118°
2026-04-22 09:52 -5.08056 119.54836 60 ft 6 kts 129°
2026-04-22 09:53 -5.08116 119.54840 60 ft 13 kts 202°
2026-04-22 09:53 -5.08215 119.54786 60 ft 19 kts 210°
2026-04-22 09:53 -5.08318 119.54726 61 ft 23 kts 209°
2026-04-22 09:53 -5.08475 119.54636 61 ft 27 kts 210°
2026-04-22 09:54 -5.08652 119.54533 60 ft 30 kts 210°
2026-04-22 09:54 -5.08834 119.54429 61 ft 26 kts 210°
2026-04-22 09:54 -5.08965 119.54353 61 ft 16 kts 209°
2026-04-22 09:54 -5.09040 119.54311 60 ft 7 kts 210°
2026-04-22 09:55 -5.09052 119.54304 60 ft 2 kts 210°
2026-04-22 09:55 -5.09095 119.54280 60 ft 9 kts 202°
2026-04-22 09:55 -5.09160 119.54301 60 ft 12 kts 124°
2026-04-22 09:55 -5.09205 119.54385 61 ft 10 kts 111°
2026-04-22 09:56 -5.09181 119.54433 61 ft 8 kts 28°
2026-04-22 09:56 -5.09089 119.54484 61 ft 43 kts 30°
2026-04-22 09:56 -5.08611 119.54764 61 ft 112 kts 30°
2026-04-22 09:56 -5.07756 119.55253 75 ft 165 kts 31°
2026-04-22 09:57 -5.06748 119.55831 651 ft 168 kts 31°
2026-04-22 09:57 -5.05736 119.56416 1290 ft 174 kts 33°
2026-04-22 09:57 -5.04856 119.57295 1773 ft 189 kts 57°
2026-04-22 09:57 -5.03974 119.58320 2201 ft 204 kts 33°
2026-04-22 09:58 -5.02557 119.58730 2528 ft 225 kts 358°
2026-04-22 09:58 -5.01017 119.58253 2907 ft 245 kts 327°
2026-04-22 09:58 -4.99833 119.56961 3313 ft 266 kts 298°
2026-04-22 09:58 -4.99381 119.55101 3771 ft 284 kts 268°
2026-04-22 09:59 -4.99928 119.53190 4330 ft 297 kts 237°
2026-04-22 09:59 -5.01224 119.51634 5328 ft 293 kts 227°
2026-04-22 09:59 -5.02581 119.50130 6209 ft 293 kts 228°
2026-04-22 09:59 -5.03960 119.48596 6992 ft 297 kts 228°
2026-04-22 10:00 -5.05340 119.47055 7765 ft 302 kts 228°
2026-04-22 10:00 -5.06746 119.45480 8569 ft 306 kts 228°
2026-04-22 10:00 -5.08167 119.43884 9387 ft 309 kts 228°
2026-04-22 10:00 -5.09578 119.42297 10215 ft 312 kts 228°
2026-04-22 10:01 -5.11103 119.40580 10866 ft 323 kts 228°
2026-04-22 10:01 -5.12774 119.38698 11632 ft 331 kts 228°
2026-04-22 10:01 -5.14470 119.36787 12477 ft 336 kts 228°
2026-04-22 10:01 -5.16165 119.34879 13324 ft 341 kts 228°
2026-04-22 10:02 -5.17912 119.32911 14162 ft 345 kts 228°
2026-04-22 10:02 -5.19674 119.30926 14999 ft 350 kts 228°
2026-04-22 10:02 -5.21437 119.28940 15814 ft 354 kts 228°
2026-04-22 10:02 -5.23239 119.26910 16632 ft 358 kts 228°
2026-04-22 10:03 -5.25073 119.24842 17447 ft 362 kts 228°
2026-04-22 10:03 -5.26920 119.22761 18245 ft 366 kts 228°
2026-04-22 10:03 -5.28767 119.20678 19021 ft 370 kts 228°
2026-04-22 10:03 -5.30673 119.18529 19795 ft 374 kts 228°
2026-04-22 10:04 -5.32559 119.16402 20545 ft 378 kts 228°
2026-04-22 10:04 -5.34494 119.14220 21267 ft 381 kts 228°
2026-04-22 10:04 -5.36442 119.12022 21956 ft 385 kts 228°
2026-04-22 10:04 -5.38399 119.09815 22620 ft 389 kts 228°
2026-04-22 10:05 -5.40387 119.07572 23287 ft 392 kts 228°
2026-04-22 10:05 -5.42368 119.05338 23921 ft 396 kts 228°
2026-04-22 10:05 -5.44374 119.03074 24530 ft 399 kts 228°
2026-04-22 10:05 -5.46412 119.00774 25129 ft 403 kts 228°
2026-04-22 10:06 -5.48469 118.98453 25710 ft 406 kts 227°
2026-04-22 10:06 -5.50536 118.96119 26274 ft 409 kts 227°
2026-04-22 10:06 -5.52619 118.93768 26823 ft 412 kts 227°
2026-04-22 10:06 -5.54701 118.91417 27353 ft 415 kts 227°
2026-04-22 10:07 -5.56822 118.89023 27876 ft 418 kts 227°
2026-04-22 10:07 -5.58951 118.86620 28384 ft 421 kts 227°
2026-04-22 10:07 -5.61093 118.84199 28875 ft 424 kts 227°
2026-04-22 10:07 -5.63245 118.81769 29334 ft 427 kts 227°
2026-04-22 10:08 -5.65423 118.79309 29780 ft 431 kts 227°
2026-04-22 10:08 -5.67612 118.76838 30233 ft 434 kts 227°
2026-04-22 10:08 -5.69826 118.74339 30693 ft 436 kts 227°
2026-04-22 10:08 -5.72041 118.71837 31150 ft 438 kts 227°
2026-04-22 10:09 -5.74252 118.69340 31598 ft 440 kts 227°
2026-04-22 10:09 -5.76473 118.66830 31857 ft 442 kts 227°
2026-04-22 10:09 -5.80966 118.61750 31859 ft 440 kts 227°
2026-04-22 10:10 -5.85431 118.56699 31860 ft 444 kts 227°
2026-04-22 10:10 -5.87712 118.54120 31861 ft 456 kts 227°
2026-04-22 10:10 -5.90030 118.51499 31862 ft 467 kts 227°
2026-04-22 10:11 -5.92429 118.48787 31862 ft 478 kts 227°
2026-04-22 10:11 -5.94876 118.46018 31861 ft 488 kts 227°
2026-04-22 10:11 -5.99931 118.40297 31860 ft 505 kts 227°
2026-04-22 10:12 -6.05093 118.34453 31858 ft 509 kts 227°
2026-04-22 10:12 -6.10256 118.28606 31858 ft 510 kts 227°
2026-04-22 10:13 -6.15434 118.22741 31858 ft 510 kts 227°
2026-04-22 10:13 -6.20603 118.16884 31858 ft 510 kts 227°
2026-04-22 10:14 -6.25781 118.11016 31858 ft 510 kts 227°
2026-04-22 10:14 -6.30922 118.05188 31858 ft 510 kts 227°
2026-04-22 10:15 -6.36090 117.99328 31859 ft 509 kts 227°
2026-04-22 10:15 -6.41253 117.93470 31859 ft 509 kts 227°
2026-04-22 10:16 -6.46400 117.87629 31858 ft 509 kts 227°
2026-04-22 10:16 -6.51522 117.81815 31858 ft 509 kts 227°
2026-04-22 10:17 -6.56677 117.75964 31859 ft 508 kts 227°
2026-04-22 10:17 -6.61825 117.70117 31858 ft 508 kts 228°
2026-04-22 10:18 -6.66968 117.64275 31858 ft 507 kts 228°
2026-04-22 10:18 -6.72036 117.58371 31858 ft 507 kts 229°
2026-04-22 10:19 -6.77021 117.52417 31858 ft 507 kts 229°
2026-04-22 10:19 -6.82020 117.46459 31859 ft 507 kts 229°
2026-04-22 10:20 -6.87004 117.40533 31858 ft 507 kts 229°
2026-04-22 10:20 -6.92009 117.34583 31858 ft 507 kts 229°
2026-04-22 10:21 -6.97000 117.28651 31858 ft 506 kts 229°
2026-04-22 10:21 -7.02008 117.22696 31859 ft 506 kts 229°
2026-04-22 10:22 -7.06975 117.16788 31859 ft 506 kts 229°
2026-04-22 10:22 -7.11958 117.10857 31858 ft 506 kts 229°
2026-04-22 10:23 -7.16956 117.04908 31858 ft 506 kts 229°
2026-04-22 10:23 -7.21947 116.98964 31859 ft 506 kts 229°
2026-04-22 10:24 -7.26296 116.93784 31533 ft 496 kts 229°
2026-04-22 10:24 -7.28732 116.90881 31147 ft 487 kts 229°
2026-04-22 10:24 -7.31089 116.88071 30779 ft 479 kts 229°
2026-04-22 10:25 -7.33427 116.85285 30412 ft 471 kts 229°
2026-04-22 10:25 -7.35739 116.82529 30049 ft 464 kts 229°
2026-04-22 10:25 -7.38003 116.79831 29682 ft 457 kts 229°
2026-04-22 10:25 -7.40247 116.77156 29337 ft 450 kts 229°
2026-04-22 10:26 -7.42436 116.74546 29076 ft 441 kts 229°
2026-04-22 10:26 -7.44595 116.71971 28828 ft 433 kts 229°
2026-04-22 10:26 -7.46710 116.69449 28588 ft 424 kts 229°
2026-04-22 10:26 -7.48776 116.66983 28284 ft 418 kts 229°
2026-04-22 10:27 -7.50837 116.64542 27939 ft 414 kts 228°
2026-04-22 10:27 -7.52952 116.62234 27578 ft 410 kts 226°
2026-04-22 10:27 -7.55114 116.59953 27194 ft 406 kts 226°
2026-04-22 10:27 -7.57261 116.57700 26807 ft 403 kts 226°
2026-04-22 10:28 -7.59377 116.55481 26423 ft 401 kts 226°
2026-04-22 10:28 -7.61472 116.53281 26040 ft 398 kts 226°
2026-04-22 10:28 -7.63577 116.51067 25675 ft 395 kts 226°
2026-04-22 10:28 -7.65665 116.48871 25190 ft 397 kts 226°
2026-04-22 10:29 -7.67748 116.46677 24698 ft 396 kts 226°
2026-04-22 10:29 -7.69852 116.44462 24200 ft 395 kts 226°
2026-04-22 10:29 -7.71942 116.42259 23705 ft 395 kts 226°
2026-04-22 10:29 -7.74006 116.40083 23214 ft 394 kts 226°
2026-04-22 10:30 -7.76100 116.37876 22715 ft 393 kts 226°
2026-04-22 10:30 -7.78158 116.35707 22224 ft 392 kts 226°
2026-04-22 10:30 -7.80222 116.33530 21703 ft 392 kts 226°
2026-04-22 10:30 -7.82298 116.31342 21152 ft 392 kts 226°
2026-04-22 10:31 -7.84364 116.29163 20583 ft 393 kts 226°
2026-04-22 10:31 -7.86424 116.26990 19975 ft 390 kts 226°
2026-04-22 10:31 -7.88461 116.24842 19372 ft 377 kts 226°
2026-04-22 10:31 -7.90441 116.22754 18799 ft 372 kts 226°
2026-04-22 10:32 -7.92369 116.20719 18198 ft 362 kts 226°
2026-04-22 10:32 -7.94268 116.18715 17632 ft 357 kts 226°
2026-04-22 10:32 -7.96116 116.16763 17049 ft 352 kts 226°
2026-04-22 10:32 -7.97833 116.14951 16514 ft 350 kts 226°
2026-04-22 10:33 -7.99681 116.12999 15970 ft 353 kts 226°
2026-04-22 10:33 -8.01558 116.11016 15352 ft 356 kts 226°
2026-04-22 10:33 -8.03423 116.09046 14737 ft 352 kts 226°
2026-04-22 10:33 -8.05270 116.07095 14349 ft 346 kts 226°
2026-04-22 10:34 -8.07087 116.05177 14074 ft 346 kts 226°
2026-04-22 10:34 -8.08907 116.03254 13656 ft 343 kts 226°
2026-04-22 10:34 -8.10707 116.01352 13114 ft 340 kts 226°
2026-04-22 10:34 -8.12504 115.99452 12676 ft 339 kts 226°
2026-04-22 10:35 -8.14305 115.97549 12233 ft 339 kts 226°
2026-04-22 10:35 -8.16080 115.95673 11798 ft 340 kts 226°
2026-04-22 10:35 -8.17870 115.93780 11388 ft 339 kts 226°
2026-04-22 10:35 -8.19645 115.91904 11107 ft 334 kts 226°
2026-04-22 10:36 -8.21387 115.90062 10834 ft 329 kts 226°
2026-04-22 10:36 -8.23132 115.88216 10513 ft 326 kts 226°
2026-04-22 10:36 -8.24845 115.86404 10191 ft 324 kts 226°
2026-04-22 10:36 -8.26551 115.84600 9934 ft 319 kts 226°
2026-04-22 10:37 -8.28200 115.82856 9725 ft 313 kts 226°
2026-04-22 10:37 -8.31453 115.79414 9363 ft 301 kts 226°
2026-04-22 10:37 -8.33034 115.77741 9226 ft 299 kts 226°
2026-04-22 10:38 -8.34615 115.76067 9089 ft 299 kts 226°
2026-04-22 10:38 -8.36168 115.74423 8903 ft 294 kts 226°
2026-04-22 10:38 -8.37716 115.72783 8699 ft 289 kts 226°
2026-04-22 10:38 -8.39223 115.71187 8493 ft 285 kts 226°
2026-04-22 10:39 -8.40724 115.69602 8315 ft 283 kts 224°
2026-04-22 10:39 -8.42391 115.68212 8176 ft 283 kts 212°
2026-04-22 10:39 -8.44291 115.67155 8040 ft 282 kts 205°
2026-04-22 10:39 -8.46227 115.66233 7874 ft 279 kts 204°
2026-04-22 10:40 -8.48150 115.65337 7740 ft 281 kts 204°
2026-04-22 10:40 -8.50122 115.64406 7601 ft 281 kts 204°
2026-04-22 10:40 -8.52040 115.63490 7465 ft 280 kts 204°
2026-04-22 10:40 -8.53988 115.62550 7327 ft 280 kts 204°
2026-04-22 10:41 -8.55913 115.61619 7190 ft 279 kts 204°
2026-04-22 10:41 -8.57833 115.60689 7053 ft 279 kts 204°
2026-04-22 10:41 -8.59747 115.59760 7008 ft 278 kts 204°
2026-04-22 10:41 -8.61644 115.58820 7005 ft 279 kts 210°
2026-04-22 10:42 -8.63262 115.57397 6919 ft 281 kts 233°
2026-04-22 10:42 -8.64424 115.55608 6741 ft 276 kts 239°
2026-04-22 10:42 -8.65494 115.53770 6536 ft 273 kts 240°
2026-04-22 10:42 -8.66561 115.51938 6119 ft 274 kts 239°
2026-04-22 10:43 -8.67631 115.50137 5701 ft 270 kts 239°
2026-04-22 10:43 -8.68692 115.48381 5472 ft 265 kts 238°
2026-04-22 10:43 -8.69745 115.46654 5227 ft 262 kts 238°
2026-04-22 10:43 -8.70791 115.44945 4757 ft 262 kts 238°
2026-04-22 10:44 -8.71757 115.43366 4215 ft 260 kts 238°
2026-04-22 10:44 -8.72707 115.41813 3687 ft 257 kts 238°
2026-04-22 10:44 -8.73502 115.40198 3166 ft 255 kts 252°
2026-04-22 10:44 -8.73881 115.38458 2698 ft 257 kts 264°
2026-04-22 10:45 -8.74004 115.36706 2211 ft 248 kts 269°
2026-04-22 10:45 -8.74052 115.34997 2021 ft 235 kts 269°
2026-04-22 10:45 -8.74100 115.33399 1930 ft 220 kts 269°
2026-04-22 10:45 -8.74161 115.31892 1865 ft 214 kts 269°
2026-04-22 10:46 -8.74230 115.30368 1768 ft 217 kts 268°
2026-04-22 10:46 -8.74303 115.28819 1631 ft 220 kts 268°
2026-04-22 10:46 -8.74376 115.27259 1500 ft 222 kts 268°
2026-04-22 10:46 -8.74447 115.25726 1356 ft 214 kts 269°
2026-04-22 10:47 -8.74514 115.24262 1172 ft 208 kts 269°
2026-04-22 10:47 -8.74579 115.22842 975 ft 192 kts 269°
2026-04-22 10:47 -8.74638 115.21554 728 ft 180 kts 269°
2026-04-22 10:47 -8.74694 115.20326 484 ft 168 kts 269°
2026-04-22 10:48 -8.74747 115.19174 271 ft 158 kts 269°
2026-04-22 10:48 -8.74801 115.18088 63 ft 151 kts 269°
2026-04-22 10:48 -8.74835 115.17113 31 ft 119 kts 268°
2026-04-22 10:48 -8.74870 115.16423 31 ft 74 kts 266°
2026-04-22 10:49 -8.74890 115.16020 31 ft 50 kts 267°
2026-04-22 10:49 -8.74904 115.15684 31 ft 43 kts 268°
2026-04-22 10:49 -8.74912 115.15494 31 ft 18 kts 271°
2026-04-22 10:49 -8.74884 115.15411 31 ft 8 kts 327°
2026-04-22 10:50 -8.74821 115.15402 31 ft 10 kts
2026-04-22 10:50 -8.74762 115.15427 31 ft 9 kts 58°
2026-04-22 10:50 -8.74748 115.15498 31 ft 11 kts 87°
2026-04-22 10:50 -8.74746 115.15581 31 ft 12 kts 88°
2026-04-22 10:51 -8.74741 115.15668 31 ft 13 kts 88°
2026-04-22 10:51 -8.74737 115.15768 31 ft 15 kts 87°
2026-04-22 10:51 -8.74732 115.15886 30 ft 18 kts 87°
2026-04-22 10:51 -8.74725 115.16019 31 ft 19 kts 88°
2026-04-22 10:52 -8.74721 115.16131 31 ft 17 kts 87°
2026-04-22 10:52 -8.74716 115.16233 31 ft 18 kts 87°
2026-04-22 10:52 -8.74710 115.16363 31 ft 18 kts 87°
2026-04-22 10:52 -8.74704 115.16492 31 ft 18 kts 87°
2026-04-22 10:53 -8.74700 115.16591 31 ft 2 kts 87°
2026-04-22 10:53 -8.74691 115.16608 31 ft 2 kts 44°
2026-04-22 10:53 -8.74671 115.16613 30 ft 3 kts 356°
2026-04-22 10:53 -8.74638 115.16611 31 ft 5 kts 358°
2026-04-22 10:54 -8.74596 115.16608 31 ft 3 kts 357°
2026-04-22 10:54 -8.74575 115.16607 31 ft 0 kts 357°